Erzurum, Turkey

12:42 AM +03 on May 23, 2017 (GMT +0300)
Erzurum

Weather History for LTCE - May, 2013

Change the Weather History Date:

Thursday, May 23, 2013

  Actual Average Record
Temperature  
Mean Temperature 53 °F -  
Max Temperature 73 °F 68 °F 75 °F (2008)
Min Temperature 33 °F 45 °F 33 °F (2013)
Degree Days  
Heating Degree Days 12    
Growing Degree Days 3 (Base 50)    
Moisture  
Dew Point 37 °F    
Average Humidity 57    
Maximum Humidity 100    
Minimum Humidity 10    
Precipitation  
Precipitation 0.00 in 0.07 in - ()
Sea Level Pressure  
Sea Level Pressure 30.16 in    
Wind  
Wind Speed 4 mph ()    
Max Wind Speed 14 mph    
Max Gust Speed -    
Visibility 6.8 miles    
Events Fog    
Averages and records for this station are not official NWS values.
T = Trace of Precipitation, MM = Missing Value Source: Averaged Metar Reports

Daily Weather History Graph

Daily Weather History Graph

Search for Another Location

Airport or City:

Trip Planner

Search our weather history database for the weather conditions in past years. The results will help you decide how hot, cold, wet, or windy it might be!

Date:

Astronomy

May. 23, 2013 Rise Set
Actual Time 4:53 AM EEST 7:30 PM EEST
Civil Twilight 4:22 AM EEST 8:02 PM EEST
Nautical Twilight 3:43 AM EEST 8:41 PM EEST
Astronomical Twilight 2:59 AM EEST 9:25 PM EEST
Moon 5:37 PM EEST (5/23) 3:23 AM EEST (5/23)
Length of Visible Light 15h 39m
Length of Day
14h 37m
Waxing Gibbous, 95% of the Moon is Illuminated
May 23
Waxing Gibbous
May 25
Full
May 31
Last Quarter
Jun 8
New
Jun 16
First Quarter

Hourly Weather History & Observations

Time (EEST) Temp. Windchill Dew Point Humidity Pressure Visibility Wind Dir Wind Speed Gust Speed Precip Events Conditions
12:20 AM 42.8 °F 40.1 °F 41.0 °F 93% 30.12 in 6.2 mi SW 4.6 mph - N/A   Partly Cloudy
12:50 AM 42.8 °F - 39.2 °F 87% 30.12 in 6.2 mi WSW 2.3 mph - N/A   Partly Cloudy
1:20 AM 39.2 °F - 37.4 °F 93% 30.12 in 6.2 mi Calm Calm - N/A   Partly Cloudy
1:50 AM 39.2 °F - 37.4 °F 93% 30.12 in - SE 2.3 mph - N/A   Clear
2:20 AM 41.0 °F - 37.4 °F 87% 30.12 in - WNW 1.2 mph - N/A   Clear
2:50 AM 39.2 °F - 37.4 °F 93% 30.12 in - Calm Calm - N/A   Clear
3:00 AM 39 °F - 37 °F 89%  in 12 mi Calm Calm - -  
3:20 AM 37.4 °F - 37.4 °F 100% 30.12 in - Variable 1.2 mph - N/A   Clear
3:50 AM 37.4 °F - 35.6 °F 93% 30.12 in - Calm Calm - N/A   Clear
4:20 AM 35.6 °F - 35.6 °F 100% 30.12 in - Calm Calm - N/A   Clear
4:34 AM 33.8 °F - 33.8 °F 100% 30.12 in - Variable 2.3 mph - N/A Fog Patches of Fog
4:50 AM 35.6 °F - 35.6 °F 100% 30.12 in 5.0 mi Variable 2.3 mph - N/A   Mist
5:05 AM 37.4 °F - 35.6 °F 93% 30.15 in - West 2.3 mph - N/A   Clear
5:20 AM 37.4 °F 33.8 °F 35.6 °F 93% 30.15 in - West 4.6 mph - N/A   Clear
5:50 AM 37.4 °F - 35.6 °F 93% 30.15 in - Variable 2.3 mph - N/A   Clear
6:20 AM 41.0 °F - 39.2 °F 93% 30.15 in - Variable 2.3 mph - N/A   Clear
6:50 AM 46.4 °F - 42.8 °F 87% 30.18 in - Calm Calm - N/A   Clear
7:20 AM 51.8 °F - 42.8 °F 71% 30.18 in - Calm Calm - N/A   Clear
7:50 AM 53.6 °F - 42.8 °F 67% 30.18 in - NE 3.5 mph - N/A   Clear
8:20 AM 55.4 °F - 44.6 °F 67% 30.18 in - NE 4.6 mph - N/A   Clear
8:50 AM 59.0 °F - 44.6 °F 59% 30.18 in - Variable 2.3 mph - N/A   Clear
9:00 AM 58 °F - 45 °F 52%  in 12 mi NNE 2.3 mph - -   Partly Cloudy
9:20 AM 60.8 °F - 44.6 °F 55% 30.18 in - Variable 3.5 mph - N/A   Clear
9:50 AM 62.6 °F - 41.0 °F 45% 30.18 in - West 6.9 mph - N/A   Clear
10:20 AM 64.4 °F - 35.6 °F 34% 30.18 in 6.2 mi West 12.7 mph - N/A   Partly Cloudy
10:50 AM 66.2 °F - 30.2 °F 26% 30.18 in 6.2 mi West 12.7 mph - N/A   Partly Cloudy
11:20 AM 68.0 °F - 32.0 °F 26% 30.18 in 6.2 mi WSW 8.1 mph - N/A   Partly Cloudy
11:50 AM 69.8 °F - 32.0 °F 25% 30.18 in 6.2 mi Variable 8.1 mph - N/A   Partly Cloudy
12:20 PM 69.8 °F - 30.2 °F 23% 30.18 in 6.2 mi West 10.4 mph - N/A   Partly Cloudy
12:50 PM 69.8 °F - 26.6 °F 20% 30.15 in 6.2 mi Variable 5.8 mph - N/A   Partly Cloudy
1:20 PM 71.6 °F - 26.6 °F 19% 30.15 in 6.2 mi West 9.2 mph - N/A   Partly Cloudy
1:50 PM 71.6 °F - 24.8 °F 17% 30.15 in 6.2 mi WNW 9.2 mph - N/A   Partly Cloudy
2:20 PM 71.6 °F - 28.4 °F 20% 30.15 in 6.2 mi WNW 9.2 mph - N/A   Partly Cloudy
2:50 PM 71.6 °F - 26.6 °F 19% 30.15 in 6.2 mi West 10.4 mph - N/A   Partly Cloudy
3:00 PM 72 °F - 28 °F 10%  in 12 mi West 10.4 mph - -   Scattered Clouds
3:20 PM 71.6 °F - 30.2 °F 22% 30.15 in 6.2 mi Variable 6.9 mph - N/A   Partly Cloudy
3:50 PM 73.4 °F - 32.0 °F 22% 30.15 in 6.2 mi West 13.8 mph - N/A   Partly Cloudy
4:20 PM 71.6 °F - 32.0 °F 23% 30.15 in 6.2 mi West 10.4 mph - N/A   Partly Cloudy
4:50 PM 71.6 °F - 28.4 °F 20% 30.15 in 6.2 mi West 10.4 mph - N/A   Partly Cloudy
5:20 PM 71.6 °F - 30.2 °F 22% 30.15 in 6.2 mi West 6.9 mph - N/A   Scattered Clouds
5:50 PM 69.8 °F - 33.8 °F 27% 30.15 in 6.2 mi WSW 10.4 mph - N/A   Partly Cloudy
6:20 PM 69.8 °F - 37.4 °F 31% 30.15 in 6.2 mi WSW 5.8 mph - N/A   Partly Cloudy
6:50 PM 66.2 °F - 37.4 °F 35% 30.15 in 6.2 mi WSW 6.9 mph - N/A   Partly Cloudy
7:20 PM 64.4 °F - 37.4 °F 37% 30.15 in 6.2 mi WSW 5.8 mph - N/A   Partly Cloudy
7:50 PM 62.6 °F - 39.2 °F 42% 30.15 in 6.2 mi SW 4.6 mph - N/A   Partly Cloudy
8:20 PM 59.0 °F - 39.2 °F 48% 30.18 in 6.2 mi SSW 5.8 mph - N/A   Partly Cloudy
8:50 PM 59.0 °F - 41.0 °F 51% 30.18 in 6.2 mi SSW 3.5 mph - N/A   Partly Cloudy
9:00 PM 59 °F - 40 °F 38%  in 12 mi SSW 3.5 mph - -   Scattered Clouds
9:20 PM 59.0 °F - 41.0 °F 51% 30.18 in 6.2 mi SSW 4.6 mph - N/A   Partly Cloudy
9:50 PM 55.4 °F - 42.8 °F 63% 30.21 in 6.2 mi SSW 4.6 mph - N/A   Partly Cloudy
10:20 PM 53.6 °F - 42.8 °F 67% 30.21 in 6.2 mi Variable 2.3 mph - N/A   Partly Cloudy
10:50 PM 51.8 °F - 41.0 °F 67% 30.21 in 6.2 mi Variable 2.3 mph - N/A   Partly Cloudy
11:20 PM 50.0 °F - 42.8 °F 76% 30.21 in 6.2 mi Variable 1.2 mph - N/A   Partly Cloudy
11:50 PM 48.2 °F - 42.8 °F 82% 30.21 in 6.2 mi Variable 1.2 mph - N/A   Partly Cloudy